Weather History for KWWD - September, 2013

Change the Weather History Date:

Wednesday, September 11, 2013

  Actual Average Record
Temperature  
Mean Temperature 80 °F -  
Max Temperature 89 °F 75 °F 89 °F (2013)
Min Temperature 71 °F 61 °F 51 °F (1998)
Cooling Degree Days 15    
Growing Degree Days 30 (Base 50)    
Moisture  
Dew Point 69 °F    
Average Humidity 72    
Maximum Humidity 88    
Minimum Humidity 55    
Precipitation  
Precipitation 0.00 in - - ()
Sea Level Pressure  
Sea Level Pressure 30.12 in    
Wind  
Wind Speed 8 mph (SSW)    
Max Wind Speed 17 mph    
Max Gust Speed 21 mph    
Visibility 10 miles    
Events      
Averages and records for this station are not official NWS values.
T = Trace of Precipitation, MM = Missing Value Source: NWS Daily Summary

Daily Weather History Graph

Daily Weather History Graph

Search for Another Location

Airport or City:

Trip Planner

Search our weather history database for the weather conditions in past years. The results will help you decide how hot, cold, wet, or windy it might be!

Date:

Astronomy

Sep. 11, 2013 Rise Set
Actual Time 6:37 AM EDT 7:14 PM EDT
Civil Twilight 6:10 AM EDT 7:40 PM EDT
Nautical Twilight 5:38 AM EDT 8:12 PM EDT
Astronomical Twilight 5:06 AM EDT 8:45 PM EDT
Moon 1:00 PM EDT (9/11) 11:11 PM EDT (9/11)
Length of Visible Light 13h 30m
Length of Day
12h 36m
Waxing Crescent, 38% of the Moon is Illuminated
Sep 11
Waxing Crescent
Sep 12
First Quarter
Sep 19
Full
Sep 26
Last Quarter
Oct 4
New

Hourly Weather History & Observations

Time (EDT) Temp. Heat Index Dew Point Humidity Pressure Visibility Wind Dir Wind Speed Gust Speed Precip Events Conditions
12:15 AM 73.4 °F - 64.4 °F 73% 30.17 in 10.0 mi SSW 6.9 mph - N/A   Clear
12:35 AM 73.4 °F - 64.4 °F 73% 30.17 in 10.0 mi SSW 8.1 mph - N/A   Clear
12:55 AM 73.4 °F - 66.2 °F 78% 30.17 in 10.0 mi SSW 9.2 mph - N/A   Clear
1:15 AM 73.4 °F - 66.2 °F 78% 30.16 in 10.0 mi SSW 8.1 mph - N/A   Clear
1:35 AM 73.4 °F - 66.2 °F 78% 30.16 in 10.0 mi SSW 8.1 mph - N/A   Clear
1:55 AM 73.4 °F - 66.2 °F 78% 30.15 in 10.0 mi SSW 6.9 mph - N/A   Clear
2:15 AM 73.4 °F - 66.2 °F 78% 30.15 in 10.0 mi SSW 9.2 mph - N/A   Clear
2:35 AM 73.4 °F - 66.2 °F 78% 30.14 in 10.0 mi SSW 8.1 mph - N/A   Clear
2:55 AM 73.4 °F - 66.2 °F 78% 30.14 in 10.0 mi SW 9.2 mph - N/A   Clear
3:15 AM 73.4 °F - 66.2 °F 78% 30.14 in 10.0 mi SW 10.4 mph - N/A   Clear
3:35 AM 73.4 °F - 66.2 °F 78% 30.13 in 10.0 mi SW 8.1 mph - N/A   Clear
3:55 AM 73.4 °F - 66.2 °F 78% 30.13 in 10.0 mi SW 9.2 mph - N/A   Clear
4:15 AM 73.4 °F - 66.2 °F 78% 30.14 in 10.0 mi SW 9.2 mph - N/A   Clear
4:35 AM 73.4 °F - 66.2 °F 78% 30.13 in 10.0 mi SW 6.9 mph - N/A   Clear
4:55 AM 73.4 °F - 66.2 °F 78% 30.13 in 10.0 mi SW 6.9 mph - N/A   Clear
5:15 AM 73.4 °F - 66.2 °F 78% 30.13 in 10.0 mi SW 5.8 mph - N/A   Clear
5:35 AM 71.6 °F - 66.2 °F 83% 30.13 in 10.0 mi SSW 6.9 mph - N/A   Clear
5:55 AM 71.6 °F - 66.2 °F 83% 30.14 in 10.0 mi SSW 5.8 mph - N/A   Clear
6:15 AM 71.6 °F - 66.2 °F 83% 30.14 in 10.0 mi SSW 4.6 mph - N/A   Clear
6:35 AM 71.6 °F - 66.2 °F 83% 30.15 in 7.0 mi SSW 4.6 mph - N/A   Clear
6:55 AM 71.6 °F - 66.2 °F 83% 30.16 in 7.0 mi South 4.6 mph - N/A   Clear
7:15 AM 71.6 °F - 68.0 °F 88% 30.17 in 7.0 mi South 4.6 mph - N/A   Clear
7:35 AM 73.4 °F - 68.0 °F 83% 30.17 in 7.0 mi South 4.6 mph - N/A   Clear
7:55 AM 73.4 °F - 69.8 °F 88% 30.17 in 8.0 mi SSW 5.8 mph - N/A   Clear
8:15 AM 75.2 °F - 69.8 °F 83% 30.16 in 9.0 mi SW 6.9 mph - N/A   Clear
8:35 AM 78.8 °F - 69.8 °F 74% 30.17 in 10.0 mi SSW 8.1 mph - N/A   Clear
8:55 AM 78.8 °F - 69.8 °F 74% 30.17 in 10.0 mi SW 8.1 mph - N/A   Clear
9:15 AM 78.8 °F - 69.8 °F 74% 30.17 in 10.0 mi SW 9.2 mph - N/A   Clear
9:35 AM 80.6 °F 83.9 °F 69.8 °F 70% 30.17 in 10.0 mi SW 9.2 mph - N/A   Clear
9:55 AM 80.6 °F 84.6 °F 71.6 °F 74% 30.17 in 10.0 mi WSW 8.1 mph - N/A   Clear
10:15 AM 82.4 °F 86.3 °F 69.8 °F 66% 30.17 in 10.0 mi WSW 6.9 mph - N/A   Clear
10:35 AM 82.4 °F 87.2 °F 71.6 °F 70% 30.16 in 10.0 mi SW 4.6 mph - N/A   Clear
10:55 AM 84.2 °F 89.6 °F 71.6 °F 66% 30.16 in 9.0 mi SW 8.1 mph - N/A   Clear
11:15 AM 86.0 °F 91.8 °F 71.6 °F 62% 30.15 in 9.0 mi SSW 5.8 mph - N/A   Clear
11:35 AM 87.8 °F 93.8 °F 71.6 °F 58% 30.15 in 10.0 mi SSW 5.8 mph - N/A   Clear
11:55 AM 87.8 °F 93.8 °F 71.6 °F 58% 30.15 in 10.0 mi SW 4.6 mph - N/A   Clear
12:15 PM 89.6 °F 96.2 °F 71.6 °F 55% 30.14 in 10.0 mi WSW 6.9 mph - N/A   Clear
12:35 PM 89.6 °F 96.2 °F 71.6 °F 55% 30.14 in 10.0 mi South 8.1 mph - N/A   Clear
12:55 PM 89.6 °F 98.2 °F 73.4 °F 59% 30.13 in 10.0 mi SSE 10.4 mph - N/A   Clear
1:15 PM 89.6 °F 98.2 °F 73.4 °F 59% 30.13 in 10.0 mi SSE 9.2 mph - N/A   Clear
1:35 PM 87.8 °F 95.6 °F 73.4 °F 62% 30.13 in 10.0 mi SSE 9.2 mph - N/A   Clear
1:55 PM 87.8 °F 93.8 °F 71.6 °F 58% 30.12 in 10.0 mi South 9.2 mph - N/A   Clear
2:15 PM 87.8 °F 93.8 °F 71.6 °F 58% 30.11 in 10.0 mi SSE 9.2 mph - N/A   Clear
2:35 PM 87.8 °F 93.8 °F 71.6 °F 58% 30.11 in 10.0 mi SSE 9.2 mph - N/A   Clear
2:55 PM 87.8 °F 93.8 °F 71.6 °F 58% 30.10 in 10.0 mi SSE 10.4 mph - N/A   Clear
3:15 PM 87.8 °F 93.8 °F 71.6 °F 58% 30.10 in 10.0 mi South 9.2 mph - N/A   Clear
3:35 PM 87.8 °F 93.8 °F 71.6 °F 58% 30.08 in 10.0 mi SSE 12.7 mph - N/A   Clear
3:55 PM 87.8 °F 93.8 °F 71.6 °F 58% 30.08 in 10.0 mi SSE 13.8 mph - N/A   Clear
4:15 PM 87.8 °F 93.8 °F 71.6 °F 58% 30.07 in 10.0 mi SSE 13.8 mph - N/A   Clear
4:35 PM 86.0 °F 90.4 °F 69.8 °F 58% 30.07 in 10.0 mi South 16.1 mph 20.7 mph N/A   Clear
4:55 PM 84.2 °F 88.4 °F 69.8 °F 62% 30.07 in 10.0 mi South 13.8 mph 19.6 mph N/A   Clear
5:15 PM 84.2 °F 87.3 °F 68.0 °F 58% 30.07 in 10.0 mi South 15.0 mph 18.4 mph N/A   Clear
5:35 PM 82.4 °F 85.4 °F 68.0 °F 62% 30.06 in 10.0 mi South 15.0 mph 20.7 mph N/A   Clear
5:55 PM 82.4 °F 85.4 °F 68.0 °F 62% 30.06 in 10.0 mi South 17.3 mph 20.7 mph N/A   Clear
6:15 PM 82.4 °F 85.4 °F 68.0 °F 62% 30.06 in 10.0 mi South 13.8 mph 19.6 mph N/A   Clear
6:35 PM 82.4 °F 85.4 °F 68.0 °F 62% 30.05 in 10.0 mi South 13.8 mph 18.4 mph N/A   Clear
6:55 PM 80.6 °F 83.2 °F 68.0 °F 65% 30.06 in 10.0 mi South 11.5 mph - N/A   Clear
7:15 PM 78.8 °F - 69.8 °F 74% 30.07 in 10.0 mi SSW 9.2 mph - N/A   Clear
7:35 PM 78.8 °F - 68.0 °F 69% 30.07 in 10.0 mi SSW 11.5 mph - N/A   Clear
7:55 PM 78.8 °F - 68.0 °F 69% 30.07 in 10.0 mi South 10.4 mph - N/A   Clear
8:15 PM 78.8 °F - 69.8 °F 74% 30.07 in 10.0 mi SSW 9.2 mph - N/A   Clear
8:35 PM 77.0 °F - 69.8 °F 78% 30.07 in 10.0 mi South 9.2 mph - N/A   Clear
8:55 PM 77.0 °F - 69.8 °F 78% 30.08 in 10.0 mi SSW 8.1 mph - N/A   Clear
9:15 PM 77.0 °F - 69.8 °F 78% 30.07 in 10.0 mi South 9.2 mph - N/A   Clear
9:35 PM 75.2 °F - 69.8 °F 83% 30.08 in 10.0 mi SSW 8.1 mph - N/A   Clear
9:55 PM 75.2 °F - 69.8 °F 83% 30.08 in 10.0 mi SSW 8.1 mph - N/A   Clear
10:15 PM 75.2 °F - 69.8 °F 83% 30.08 in 10.0 mi SSW 5.8 mph - N/A   Clear
10:35 PM 75.2 °F - 69.8 °F 83% 30.07 in 10.0 mi South 8.1 mph - N/A   Clear
10:55 PM 75.2 °F - 69.8 °F 83% 30.07 in 10.0 mi SSW 8.1 mph - N/A   Clear
11:15 PM 75.2 °F - 68.0 °F 78% 30.06 in 10.0 mi South 9.2 mph - N/A   Clear
11:35 PM 75.2 °F - 68.0 °F 78% 30.05 in 10.0 mi South 11.5 mph - N/A   Clear
11:55 PM 75.2 °F - 68.0 °F 78% 30.05 in 10.0 mi SSW 11.5 mph 16.1 mph N/A   Clear